I2476 LIPE-LIRZ

Flight info

Callsign I2476
Flight time N/A
Altitude 20000
Route PELE1J PELEG M726 GAVRA Z806 VERUN Q25 LAKOX LAKO1D
Aircraft A320/M-S/7123

Departure

Time N/A
Airport Bologna Guglielmo Marconi Airport (LIPE)

Arrival

Time 2026-04-25 20:52
Airport Perugia San Francesco d'Assisi – Umbria International Airport (LIRZ)
Time Latitude Longitude Altitude Speed Heading
2026-04-25 20:13 44.54063 11.27427 0 ft 0 kts 117°
2026-04-25 20:13 44.54043 11.27483 0 ft 27 kts 116°
2026-04-25 20:13 44.53862 11.27993 0 ft 96 kts 116°
2026-04-25 20:14 44.53477 11.29077 0 ft 159 kts 116°
2026-04-25 20:14 44.52983 11.30494 0 ft 185 kts 112°
2026-04-25 20:14 44.52911 11.32359 0 ft 217 kts 65°
2026-04-25 20:14 44.53801 11.33763 0 ft 209 kts 22°
2026-04-25 20:15 44.55192 11.33919 0 ft 211 kts 336°
2026-04-25 20:15 44.55232 11.33900 0 ft 211 kts 335°
2026-04-25 20:16 44.55240 11.33896 0 ft 211 kts 335°
2026-04-25 20:16 44.56267 11.32623 0 ft 215 kts 291°
2026-04-25 20:16 44.56560 11.30664 0 ft 221 kts 274°
2026-04-25 20:16 44.56630 11.28610 0 ft 236 kts 270°
2026-04-25 20:17 44.56583 11.26308 0 ft 252 kts 265°
2026-04-25 20:17 44.56336 11.23818 0 ft 268 kts 255°
2026-04-25 20:17 44.55632 11.21337 0 ft 273 kts 239°
2026-04-25 20:17 44.54639 11.19620 0 ft 229 kts 225°
2026-04-25 20:18 44.53982 11.18731 0 ft 228 kts 223°
2026-04-25 20:18 44.52813 11.17293 0 ft 230 kts 220°
2026-04-25 20:18 44.51603 11.15912 0 ft 235 kts 218°
2026-04-25 20:18 44.50312 11.14506 0 ft 239 kts 218°
2026-04-25 20:19 44.48994 11.13104 0 ft 241 kts 217°
2026-04-25 20:19 44.47659 11.11692 0 ft 242 kts 217°
2026-04-25 20:19 44.46303 11.10286 0 ft 245 kts 208°
2026-04-25 20:19 44.44691 11.09776 0 ft 246 kts 168°
2026-04-25 20:20 44.43082 11.10497 0 ft 249 kts 156°
2026-04-25 20:20 44.41504 11.11535 0 ft 252 kts 153°
2026-04-25 20:20 44.39966 11.12697 0 ft 254 kts 150°
2026-04-25 20:20 44.38445 11.13948 0 ft 256 kts 149°
2026-04-25 20:21 44.37015 11.15186 0 ft 258 kts 148°
2026-04-25 20:21 44.35540 11.16496 0 ft 260 kts 147°
2026-04-25 20:21 44.34027 11.17852 0 ft 263 kts 147°
2026-04-25 20:21 44.32492 11.19224 0 ft 265 kts 148°
2026-04-25 20:22 44.30960 11.20620 0 ft 267 kts 139°
2026-04-25 20:22 44.30512 11.21195 0 ft 267 kts 127°
2026-04-25 20:22 44.29274 11.25275 0 ft 294 kts 103°
2026-04-25 20:22 44.28845 11.28128 0 ft 315 kts 99°
2026-04-25 20:23 44.28535 11.31104 0 ft 315 kts 97°
2026-04-25 20:23 44.28307 11.34100 0 ft 316 kts 95°
2026-04-25 20:23 44.28125 11.37163 0 ft 319 kts 94°
2026-04-25 20:23 44.27976 11.40167 0 ft 332 kts 94°
2026-04-25 20:24 44.27820 11.43374 0 ft 348 kts 95°
2026-04-25 20:24 44.27508 11.46773 0 ft 364 kts 99°
2026-04-25 20:24 44.27061 11.50250 0 ft 380 kts 101°
2026-04-25 20:24 44.26516 11.53843 0 ft 394 kts 103°
2026-04-25 20:25 44.25909 11.57466 0 ft 407 kts 103°
2026-04-25 20:25 44.25230 11.61259 0 ft 418 kts 104°
2026-04-25 20:25 44.24479 11.65255 0 ft 429 kts 105°
2026-04-25 20:25 44.23508 11.69138 0 ft 438 kts 118°
2026-04-25 20:26 44.21700 11.72340 0 ft 440 kts 139°
2026-04-25 20:26 44.19215 11.74450 0 ft 438 kts 159°
2026-04-25 20:26 44.16316 11.75467 0 ft 438 kts 170°
2026-04-25 20:26 44.13384 11.76096 0 ft 438 kts 172°
2026-04-25 20:27 44.10403 11.76620 0 ft 438 kts 173°
2026-04-25 20:27 44.07410 11.77105 0 ft 438 kts 174°
2026-04-25 20:27 44.04378 11.77588 0 ft 438 kts 174°
2026-04-25 20:27 44.01466 11.78059 0 ft 438 kts 173°
2026-04-25 20:28 43.98553 11.78544 0 ft 438 kts 173°
2026-04-25 20:28 43.95615 11.79050 0 ft 438 kts 173°
2026-04-25 20:28 43.92661 11.79577 0 ft 438 kts 173°
2026-04-25 20:28 43.89683 11.80138 0 ft 438 kts 172°
2026-04-25 20:29 43.86858 11.80687 0 ft 438 kts 172°
2026-04-25 20:29 43.84117 11.81228 0 ft 438 kts 172°
2026-04-25 20:29 43.82444 11.81559 0 ft 438 kts 172°
2026-04-25 20:29 43.79761 11.82092 0 ft 438 kts 172°
2026-04-25 20:30 43.76846 11.82676 0 ft 438 kts 172°
2026-04-25 20:30 43.75116 11.83024 0 ft 438 kts 172°
2026-04-25 20:30 43.73298 11.83388 0 ft 438 kts 172°
2026-04-25 20:30 43.70841 11.83880 0 ft 438 kts 172°
2026-04-25 20:31 43.68140 11.84419 0 ft 438 kts 172°
2026-04-25 20:31 43.65178 11.85007 0 ft 438 kts 172°
2026-04-25 20:31 43.62230 11.85588 0 ft 438 kts 172°
2026-04-25 20:31 43.59279 11.86168 0 ft 435 kts 172°
2026-04-25 20:32 43.56679 11.86677 0 ft 429 kts 172°
2026-04-25 20:32 43.53881 11.87223 0 ft 423 kts 172°
2026-04-25 20:32 43.51249 11.87734 0 ft 416 kts 172°
2026-04-25 20:32 43.48645 11.88239 0 ft 409 kts 172°
2026-04-25 20:33 43.46128 11.88725 0 ft 407 kts 172°
2026-04-25 20:33 43.43538 11.89224 0 ft 401 kts 172°
2026-04-25 20:33 43.41329 11.89649 0 ft 397 kts 172°
2026-04-25 20:33 43.40542 11.89800 0 ft 396 kts 172°
2026-04-25 20:34 43.37045 11.90469 0 ft 391 kts 172°
2026-04-25 20:34 43.34542 11.90947 0 ft 387 kts 172°
2026-04-25 20:34 43.31978 11.91447 0 ft 385 kts 170°
2026-04-25 20:34 43.29699 11.92595 0 ft 381 kts 150°
2026-04-25 20:35 43.27788 11.94393 0 ft 379 kts 143°
2026-04-25 20:35 43.25993 11.96405 0 ft 379 kts 139°
2026-04-25 20:35 43.24203 11.98616 0 ft 380 kts 137°
2026-04-25 20:35 43.22467 12.00908 0 ft 380 kts 135°
2026-04-25 20:36 43.20760 12.03266 0 ft 375 kts 134°
2026-04-25 20:36 43.19129 12.05598 0 ft 377 kts 133°
2026-04-25 20:36 43.17534 12.08210 0 ft 398 kts 124°
2026-04-25 20:36 43.16484 12.11371 0 ft 395 kts 111°
2026-04-25 20:37 43.15701 12.14661 0 ft 395 kts 108°
2026-04-25 20:37 43.15033 12.18000 0 ft 379 kts 105°
2026-04-25 20:37 43.14522 12.20856 0 ft 351 kts 104°
2026-04-25 20:37 43.14041 12.23762 0 ft 324 kts 103°
2026-04-25 20:38 43.13602 12.26577 0 ft 300 kts 103°
2026-04-25 20:38 43.13250 12.28925 0 ft 282 kts 103°
2026-04-25 20:38 43.12929 12.31107 0 ft 266 kts 102°
2026-04-25 20:38 43.12630 12.33199 0 ft 259 kts 102°
2026-04-25 20:39 43.12334 12.35318 0 ft 263 kts 102°
2026-04-25 20:39 43.12063 12.37287 0 ft 261 kts 102°
2026-04-25 20:39 43.11791 12.39258 0 ft 255 kts 102°
2026-04-25 20:39 43.11604 12.40614 0 ft 254 kts 102°
2026-04-25 20:40 43.11373 12.42300 0 ft 254 kts 102°
2026-04-25 20:40 43.11076 12.44510 0 ft 255 kts 102°
2026-04-25 20:40 43.10781 12.46712 0 ft 255 kts 102°
2026-04-25 20:40 43.10406 12.48631 0 ft 251 kts 123°
2026-04-25 20:41 43.09408 12.50149 0 ft 237 kts 160°
2026-04-25 20:41 43.08240 12.50586 0 ft 223 kts 193°
2026-04-25 20:41 43.07015 12.50039 0 ft 207 kts 217°
2026-04-25 20:41 43.05878 12.49082 0 ft 205 kts 218°
2026-04-25 20:42 43.04876 12.48224 0 ft 203 kts 218°
2026-04-25 20:42 43.03789 12.47321 0 ft 205 kts 217°
2026-04-25 20:42 43.02636 12.46402 0 ft 206 kts 216°
2026-04-25 20:42 43.01640 12.45653 0 ft 205 kts 215°
2026-04-25 20:43 43.00450 12.44790 0 ft 208 kts 213°
2026-04-25 20:43 42.99416 12.44071 0 ft 207 kts 213°
2026-04-25 20:43 42.98250 12.43284 0 ft 197 kts 212°
2026-04-25 20:43 42.97120 12.42546 0 ft 184 kts 213°
2026-04-25 20:44 42.96130 12.41910 0 ft 182 kts 213°
2026-04-25 20:44 42.95037 12.41186 0 ft 191 kts 212°
2026-04-25 20:44 42.93961 12.40493 0 ft 192 kts 212°
2026-04-25 20:44 42.92833 12.39763 0 ft 186 kts 212°
2026-04-25 20:45 42.91759 12.39057 0 ft 178 kts 213°
2026-04-25 20:45 42.90678 12.38345 0 ft 176 kts 213°
2026-04-25 20:45 42.89738 12.37710 0 ft 178 kts 213°
2026-04-25 20:45 42.88666 12.37194 0 ft 191 kts 185°
2026-04-25 20:46 42.87511 12.37690 0 ft 218 kts 143°
2026-04-25 20:46 42.86721 12.39385 0 ft 229 kts 98°
2026-04-25 20:46 42.86832 12.41259 0 ft 215 kts 57°
2026-04-25 20:46 42.87690 12.42638 0 ft 217 kts 25°
2026-04-25 20:47 42.88952 12.43520 0 ft 224 kts 18°
2026-04-25 20:47 42.90162 12.44234 0 ft 223 kts 14°
2026-04-25 20:47 42.91482 12.44940 0 ft 220 kts 11°
2026-04-25 20:47 42.92869 12.45501 0 ft 233 kts
2026-04-25 20:48 42.94307 12.46009 0 ft 225 kts
2026-04-25 20:48 42.95649 12.46498 0 ft 193 kts
2026-04-25 20:48 42.96794 12.46887 0 ft 174 kts
2026-04-25 20:48 42.97901 12.47261 0 ft 174 kts
2026-04-25 20:49 42.98996 12.47639 0 ft 178 kts
2026-04-25 20:49 43.00053 12.47994 0 ft 173 kts
2026-04-25 20:49 43.01112 12.48361 0 ft 172 kts
2026-04-25 20:49 43.02166 12.48735 0 ft 179 kts
2026-04-25 20:50 43.03295 12.49126 0 ft 168 kts
2026-04-25 20:50 43.04366 12.49505 0 ft 157 kts
2026-04-25 20:50 43.05358 12.49854 0 ft 147 kts
2026-04-25 20:50 43.06263 12.50170 0 ft 132 kts
2026-04-25 20:51 43.07097 12.50460 0 ft 121 kts
2026-04-25 20:51 43.07980 12.50747 0 ft 131 kts
2026-04-25 20:51 43.08874 12.51047 0 ft 132 kts
2026-04-25 20:51 43.09524 12.51282 0 ft 65 kts 37°
2026-04-25 20:52 43.09876 12.51444 0 ft 46 kts 12°
2026-04-25 20:52 43.10063 12.51499 0 ft 39 kts 12°
2026-04-25 20:52 43.10280 12.51562 0 ft 0 kts 12°